Reflectivity
16 24 -20 -20 1 19 29 -7 -20 -20 -20 -20 -20 -20 -20 -20 -20 -20 -20 -20 -20 -20 -20 -20 -20 -20 -20 -20 -20 -20 -20 -20 -20 -20 -20 -20 -20 -20 -20 -20 -20 -20 -20
-12 4 11 -19 -20 7 19 -5 -13 -20 -20 -20 -20 -20 -20 -20 -20 -20 -20 -20 -20 -20 -20 -20 -20 -20 -20 -20 -20 -20 -20 -20 -20 -20 -20 -20 -20 -20 -20 -20 -20 -20 -20
-20 -16 -20 11 -20 -17 20 14 -4 4 -20 -20 -20 -20 -20 -20 -20 -20 -20 -20 -20 -20 -20 -20 -20 -20 -20 -20 -20 -20 -20 -20 -20 -20 -20 -20 -20 -20 -20 -20 -20 -20 -20
-20 -20 -20 2 11 -18 -20 7 23 -7 -11 -6 -20 -20 -20 -20 -20 -20 -20 -20 -20 -20 -20 -20 -20 -20 -20 -20 -20 -20 -20 -20 -20 -20 -20 -20 -20 -20 -20 -20 -20 -20 -20
-20 -20 -20 -20 -0 24 10 21 -1 8 -8 -18 -20 -20 -7 -5 -8 -18 -20 -20 -20 -20 -20 -20 -20 -20 -20 -20 -20 -20 -20 -20 -20 -20 -20 -20 -20 -20 -20 -20 -20 -20 -20
-20 -20 -14 -20 -20 -20 -10 -14 -5 -4 -4 -9 4 -20 7 -20 -20 -20 -20 -20 -20 -20 -20 -20 -20 -20 -20 -20 -20 -20 -20 -20 -20 -20 -20 -20 -20 -20 -20 -20 -20 -20 -20
-20 -20 -20 -4 -20 -20 -5 20 12 -3 -1 2 -3 -9 7 -5 -20 -20 -20 -20 -20 -20 -20 -20 -20 -20 -20 -20 -20 -20 -20 -20 -20 -20 -20 -20 -20 -20 -20 -20 -20 -20 -20
-20 -20 -20 -20 -20 -13 -20 15 -20 -20 18 18 9 -17 9 -9 -20 -20 -20 -20 -20 -20 -20 -20 -20 -20 -20 -20 -20 -20 -20 -20 -20 -20 -20 -20 -20 -20 -20 -20 -20 -20 -20
-20 -20 -20 -20 -20 -2 3 -19 -7 12 18 16 -4 -1 8 5 -20 -20 -20 -20 -20 -20 -20 -20 -20 -20 -20 -20 -20 -20 -20 -20 -20 -20 -20 -20 -20 -20 -20 -20 -20 -20 -20
-20 -20 -20 -20 -20 -20 -20 -7 -20 1 23 -0 27 17 18 0 -18 -20 -20 -20 -20 -20 -20 -20 -20 -20 -20 -20 -20 -20 -20 -20 -20 -20 -20 -20 -20 -20 -20 -20 -20 -20 -20
-20 -20 -20 -20 -20 -20 -20 -20 -5 -3 13 15 13 30 19 1 -10 -2 -20 -20 -20 -20 -20 -20 -20 -20 -20 -20 -20 -20 -20 -20 -20 -20 -20 -20 -20 -20 -20 -20 -20 -20 -20
-20 -20 -20 -20 -20 -20 -20 -20 -20 -20 -20 -3 32 17 21 -0 23 10 -6 -1 7 -16 -20 -20 -20 -20 -20 -20 -20 -20 -20 -20 -20 -20 -20 -20 -20 -20 -20 -20 -20 -20 -20
-20 -20 -20 -20 -20 -20 -20 -20 -20 -20 -20 -20 16 16 -17 -6 25 18 11 9 -2 -20 -20 -20 -20 -20 -20 -20 -20 -20 -20 -20 -20 -20 -20 -20 -20 -20 -20 -20 -20 -20 -20
-20 -20 -20 -20 -20 -20 -20 -20 -20 -2 18 18 22 15 5 19 -1 7 7 -17 -20 -20 -20 -20 -20 -20 -20 -20 -20 -20 -20 -20 -20 -20 -20 -20 -20 -20 -20 -20 -20 -20 -20
-20 -20 -20 -20 -20 -20 -20 -20 -11 6 12 21 -11 4 12 -17 23 21 -19 -20 -15 2 -2 -11 -20 -20 -20 -20 -20 -20 -20 -20 -20 -20 -20 -20 -20 -20 -20 -20 -20 -20 -20
-20 -20 -20 -20 -20 -14 -15 10 14 23 20 24 21 3 -1 9 -19 -20 -20 -5 19 19 -20 -20 -20 -20 -20 -20 -20 -20 -20 -20 -20 -20 -20 -20 -20 -20 -20 -20 -20 -20 -20
-20 -20 -20 -20 -20 -20 -20 -20 1 5 -20 -20 -20 -20 -20 -20 -20 -16 -8 -20 -20 -20 -17 -16 -17 -20 -20 -20 -20 -20 -20 -20 -20 -20 -20 -20 -20 -20 -20 -20 -20 -20 -20
-20 -20 -20 -20 -20 -20 -20 -17 -6 -20 11 12 -18 -19 -20 -20 -20 -20 -15 -5 -0 -5 -13 -20 -20 -20 -20 -20 -20 -20 -20 -20 -20 -20 -20 -20 -20 -20 -20 -20 -20 -20 -20
-20 -20 -20 -20 -20 -20 -20 1 31 29 21 12 2 21 18 9 4 7 9 -11 -18 -9 4 -17 -20 -20 -20 -20 -20 -20 -20 -20 -20 -20 -20 -20 -20 -20 -20 -20 -20 -20 -20
10 -20 -20 -20 -20 -20 -20 -20 -20 -20 -20 -12 13 -10 -0 8 2 -18 -20 -15 -20 -11 -20 -20 -20 -20 -20 -20 -20 -20 -20 -20 -20 -20 -20 -20 -20 -20 -20 -3 -1 -12 -7
-10 5 -19 -20 -20 -18 10 -20 -20 -20 -13 -20 -20 -20 -20 -19 -20 -20 -20 -20 -16 -20 -20 -20 -20 -20 -20 -20 -20 -20 -20 -20 -20 -20 -20 -20 -20 -20 -2 3 -1 1 -1
-20 -12 -4 -20 -20 -20 -20 -20 -18 -18 -10 -8 -20 -20 -20 -20 -16 -7 -18 -6 -19 -20 -20 -20 -20 -20 -20 -20 -20 -20 -20 -20 -20 -20 -20 -20 -20 2 2 1 -11 -20 -20
-6 -20 -12 18 -20 -20 -20 -14 1 -9 -0 7 5 12 12 8 -8 -14 -19 -20 -20 -20 -20 -20 -20 -20 -20 -20 -20 -20 -20 -20 -16 -20 -20 -20 -19 -20 -20 -20 -20 -20 -20
-20 -17 -20 -20 4 -6 -19 -16 -12 0 3 -3 -3 -20 -19 -10 -19 -20 -20 -19 -20 -20 -20 -20 -20 -20 -20 -20 -20 -20 -20 -20 -20 -20 -20 -20 -18 -20 -20 -20 -20 -20 -20
-20 -12 -13 -20 -10 17 12 6 6 -18 -20 -20 -20 -20 -18 -20 -20 -20 -20 -20 -20 -20 -20 -20 -20 -20 -20 -20 -17 -12 -20 -20 -20 -5 -1 1 -17 -20 -20 -20 -20 -20 -20
-20 -12 -11 1 20 22 14 7 -1 -1 -8 -12 -5 -19 -20 -11 -12 -8 -19 -20 -20 -20 -20 -20 -20 -20 -20 -20 -20 -20 -20 -20 -5 4 2 -20 -20 -20 -20 -20 -10 -20 -20
Wind_Speed
10 13 16 17 14 16 18 19 18 17 13 11 10 8 8 7 6 6 8 8 6 7 6 5 6 4 3 4 3 4 4 5 3 4 3 3 2 2 1 1 2 5 5
12 16 18 17 17 17 19 19 18 17 15 11 10 6 9 7 6 6 7 7 8 7 6 7 6 5 4 4 4 3 3 4 3 1 1 3 4 2 2 1 3 5 4
18 18 18 20 18 18 18 19 20 18 14 15 10 8 7 6 6 7 7 7 8 7 7 7 6 6 4 3 4 4 2 4 4 5 2 2 2 0 2 2 2 6 3
18 17 16 17 20 19 16 16 19 19 14 16 13 16 11 11 8 9 7 7 8 8 7 7 7 6 4 5 4 3 3 2 4 3 5 5 4 2 2 3 1 4 4
18 17 18 19 20 16 16 15 16 18 16 15 14 11 10 7 8 8 11 8 8 8 8 8 8 7 4 5 5 5 4 4 4 3 3 3 3 3 2 1 2 1 2
18 13 11 13 14 14 16 16 17 15 15 14 13 14 13 11 11 11 10 8 7 6 8 8 7 7 6 6 5 5 5 5 4 4 3 3 2 2 2 2 3 4 2
16 12 12 15 16 16 18 18 19 17 15 15 15 12 12 12 15 14 10 12 8 7 9 9 8 7 7 6 6 5 5 4 4 4 3 3 3 2 2 2 3 3 3
9 8 10 11 12 14 15 17 22 18 16 15 14 11 11 8 9 12 11 9 9 9 11 9 8 9 8 7 6 5 4 5 4 5 3 3 3 2 1 2 3 4 3
11 10 8 11 13 14 18 16 18 19 20 16 10 8 9 12 11 12 11 9 10 9 10 10 10 9 8 7 6 5 5 5 4 4 4 3 3 2 2 1 2 3 4
9 8 7 10 11 13 13 16 15 18 16 20 15 10 11 10 12 12 11 11 10 11 12 11 10 9 8 7 7 6 5 6 4 3 4 4 3 3 2 1 1 3 4
6 6 5 6 9 10 13 14 15 18 19 16 11 15 12 13 13 11 11 11 11 11 11 11 10 9 9 8 7 7 7 7 6 5 5 5 4 3 2 2 2 3 3
5 5 5 7 9 10 12 15 13 13 13 15 14 15 15 13 13 12 11 11 12 10 11 11 11 10 9 8 8 8 6 6 6 5 5 4 3 3 3 3 3 3 3
5 5 6 7 9 10 12 13 13 12 13 14 15 15 12 14 12 12 15 13 13 12 12 12 12 11 9 9 8 8 7 6 5 4 4 4 3 3 3 4 4 4 4
7 7 7 8 9 11 12 12 12 12 13 14 14 15 14 14 15 13 14 14 13 13 13 12 12 11 10 9 8 7 6 5 5 4 3 3 3 4 4 4 5 5 6
11 11 10 9 9 10 10 12 11 12 13 14 14 13 14 14 17 14 13 14 13 12 13 13 11 10 9 6 6 6 5 4 4 3 2 3 4 3 5 5 6 7 7
13 13 12 12 12 11 12 11 12 13 15 15 15 15 14 16 13 14 12 13 14 12 11 12 12 9 6 10 7 4 4 4 2 2 2 3 2 4 5 7 8 8 8
15 17 16 15 13 13 13 16 16 13 15 15 15 16 15 16 15 14 15 13 13 11 10 10 10 9 8 7 6 6 4 3 3 1 2 3 3 4 5 7 9 9 9
17 18 16 15 15 15 14 14 15 17 18 17 14 14 14 15 13 12 12 13 11 11 9 8 8 7 5 5 7 5 4 2 1 2 3 4 5 5 7 8 8 8 8
17 17 17 18 16 16 17 18 17 17 16 17 15 14 15 15 14 14 12 9 10 9 8 7 6 6 6 5 5 2 1 1 2 3 3 4 5 6 10 9 9 9 9
14 17 19 18 18 19 19 18 17 17 18 17 17 15 13 14 13 13 12 9 9 9 6 7 5 5 6 5 3 3 1 3 3 3 4 4 6 10 11 9 9 10 10
15 19 20 18 18 18 17 19 19 17 16 16 16 15 14 14 13 12 10 9 8 7 6 6 5 5 4 3 3 3 3 3 3 4 4 4 7 11 12 12 9 9 12
17 16 18 17 16 15 17 18 17 16 16 16 14 13 13 9 9 12 9 9 7 7 6 5 5 3 2 1 1 4 4 5 5 5 5 6 10 13 12 11 11 15 13
14 15 14 19 17 16 16 18 16 16 16 16 14 13 13 11 9 10 9 7 6 5 5 4 3 2 1 1 2 5 5 5 6 5 8 13 12 12 10 10 14 14 7
13 14 18 17 17 16 15 18 17 17 16 16 14 12 11 10 8 6 5 5 5 4 4 3 2 1 1 1 1 2 3 4 6 7 7 8 10 11 10 9 7 6 6
11 12 15 15 15 16 17 15 15 16 15 14 12 11 8 8 8 6 5 5 4 3 4 2 0 1 1 1 5 6 6 6 7 10 6 6 6 7 7 6 6 6 6
11 12 14 17 16 15 15 13 12 13 13 12 9 7 7 6 6 6 6 5 4 4 2 1 3 2 3 5 8 8 9 10 12 6 6 7 7 7 7 7 7 7 8
Wind_Direction
220 190 202 197 187 199 189 190 183 179 169 167 165 166 172 167 165 164 162 163 163 156 153 141 133 133 120 104 113 101 93 86 95 147 142 131 114 80 112 66 53 30 35
213 196 191 192 192 197 198 185 187 176 181 175 171 170 164 172 163 159 164 164 161 162 159 149 139 135 134 120 106 151 124 85 39 116 193 163 160 143 85 57 34 26 31
231 207 190 188 189 196 201 193 185 180 180 173 157 145 135 135 159 170 166 166 161 164 159 150 144 134 134 120 100 86 98 123 75 52 349 183 76 256 140 98 79 11 33
231 233 201 187 188 193 195 194 187 182 172 169 170 171 177 171 180 171 169 160 164 161 154 146 143 136 134 134 112 98 97 108 115 104 63 49 16 11 168 142 108 11 30
234 220 202 197 191 181 183 192 187 185 178 175 175 168 166 163 154 161 161 161 165 158 153 150 143 143 142 132 129 125 100 91 96 84 126 80 75 42 349 25 42 33 45
243 236 202 197 193 187 172 185 180 185 174 176 172 170 161 155 157 161 163 166 162 159 158 154 147 148 140 141 133 120 111 99 98 98 90 73 51 55 9 314 342 327 339
237 244 208 195 191 188 179 183 176 179 175 175 176 170 165 166 168 166 168 164 163 166 166 156 153 151 143 141 139 128 123 115 106 102 97 90 80 65 39 338 352 319 336
247 240 237 217 203 194 197 186 169 169 174 176 179 165 162 169 170 172 167 170 171 167 157 157 153 145 146 144 140 131 121 118 117 108 95 101 90 79 38 352 328 316 280
254 252 232 225 211 199 201 189 180 162 164 167 162 161 161 164 163 163 165 165 159 152 155 154 148 147 145 146 142 131 129 120 110 102 102 96 83 76 59 338 303 313 308
239 236 226 225 216 203 195 194 182 166 179 157 152 155 168 161 152 149 154 156 145 149 152 149 144 140 139 139 133 123 120 117 101 98 101 94 77 79 66 32 316 268 282
266 244 215 216 218 199 189 187 177 171 162 146 147 144 162 155 144 138 144 144 142 147 144 140 134 132 129 127 122 114 116 112 106 96 92 80 54 57 49 26 347 295 284
248 224 220 186 179 185 182 171 165 159 154 130 141 148 147 148 128 133 134 139 134 136 134 129 124 121 119 119 116 112 108 106 100 91 87 71 48 39 20 345 333 311 297
212 198 185 187 165 155 156 147 142 138 130 128 140 145 133 136 126 136 130 134 128 130 126 123 119 117 113 109 105 105 104 99 94 84 67 51 17 9 1 335 323 312 301
221 204 190 177 165 156 140 129 123 126 128 133 144 140 135 138 129 130 126 125 133 128 119 117 115 114 111 107 110 108 107 110 98 86 62 39 2 339 325 309 305 302 303
214 204 187 180 161 148 136 124 121 128 139 138 133 131 123 132 117 129 129 124 122 116 120 115 109 110 112 112 118 118 114 106 105 102 69 45 17 10 349 325 319 308 302
212 198 187 174 167 161 146 133 135 142 144 137 129 127 126 115 126 130 116 121 116 115 115 116 114 114 101 106 108 113 113 113 105 82 57 14 255 344 325 316 303 302 300
207 194 184 175 166 162 158 145 139 137 131 128 129 124 122 123 127 128 122 121 111 122 114 110 113 112 105 107 115 121 114 119 104 36 341 327 331 309 321 305 294 286 290
203 191 179 169 160 153 144 134 135 136 131 127 125 127 124 123 129 116 114 119 126 118 114 112 107 117 102 118 122 127 116 118 84 344 332 317 319 326 317 311 308 305 302
199 186 173 162 154 149 149 137 137 130 128 132 133 133 130 128 124 123 123 119 118 122 113 115 122 133 123 115 108 129 98 340 332 337 313 313 308 323 314 307 300 301 299
177 170 159 154 151 151 143 136 134 139 134 138 131 131 130 124 126 126 122 123 116 111 125 119 118 108 123 97 67 8 357 311 324 311 298 287 310 315 306 302 305 302 307
163 154 153 150 147 148 144 137 140 134 131 128 129 129 127 128 125 120 119 118 119 123 123 122 115 122 106 104 27 7 318 313 305 305 307 306 304 302 298 305 302 309 313
144 156 145 137 140 144 136 132 128 127 125 121 121 120 122 117 120 117 119 122 129 128 126 125 132 132 128 50 20 333 318 314 292 294 299 298 298 297 308 305 312 305 303
148 143 137 132 137 143 139 124 129 127 123 119 124 120 117 119 126 128 129 125 130 131 132 134 139 141 135 348 338 316 307 286 289 294 305 300 302 298 288 297 302 303 292
145 144 136 134 132 134 127 125 132 130 124 122 123 126 126 127 121 120 127 133 138 135 133 140 147 128 327 315 312 295 286 287 282 297 292 306 297 293 289 294 299 308 307
131 138 130 125 122 122 120 123 126 127 125 124 125 127 126 131 131 120 124 124 117 128 135 126 164 261 260 341 305 313 303 312 312 309 312 304 298 300 308 308 308 313 318
117 115 112 113 115 112 112 117 120 122 122 123 128 134 136 135 132 131 125 99 109 134 121 292 270 221 255 297 302 307 309 307 307 305 292 297 307 310 316 318 313 307 302